AC5JC-1 Weather Reports


Display with metric or nautical units.
time (UTC)temp
F
wind
direction
speed
MPH
gust
MPH
rain 1hr
in
rain 24hr
in
rain mn
in
humidity
%
barometer
mb
20260902034035 84 0.0 0.0 0.00 0.00 0.00 62 1015.3
20260902033642 84 0.0 0.0 0.00 0.00 0.00 62 1015.1
20260902033102 84 0.0 0.0 0.00 0.00 0.00 62 1015.2
20260902032535 84 0.0 0.0 0.00 0.00 0.00 61 1015.0
20260902032035 85 0.0 0.0 0.00 0.00 0.00 60 1015.0
20260902031536 85 0.0 0.0 0.00 0.00 0.00 60 1014.9
20260902031035 85 0.0 0.0 0.00 0.00 0.00 60 1014.9
20260902030607 86 0.0 0.0 0.00 0.00 0.00 59 1014.8
20260902030110 86 0.0 0.0 0.00 0.00 0.00 58 1014.7
20260902025550 87 0.0 0.0 0.00 0.00 0.00 57 1014.6
20260902025055 87 0.0 0.0 0.00 0.00 0.00 57 1014.5
20260902024535 87 149 0.0 1.0 0.00 0.00 0.00 57 1014.4
20260902024055 87 167 0.0 1.0 0.00 0.00 0.00 57 1014.4
20260902023622 87 0.0 0.0 0.00 0.00 0.00 57 1014.4
20260902023102 87 0.0 0.0 0.00 0.00 0.00 57 1014.3
20260902022542 87 0.0 0.0 0.00 0.00 0.00 56 1014.2
20260902022035 87 167 0.0 1.0 0.00 0.00 0.00 56 1014.2
20260902021536 88 172 0.0 1.0 0.00 0.00 0.00 56 1014.0
20260902021035 88 173 0.0 1.0 0.00 0.00 0.00 55 1014.0
20260902020607 88 170 0.0 1.0 0.00 0.00 0.00 55 1014.0
20260902020110 88 0.0 0.0 0.00 0.00 0.00 56 1013.9
20260902015550 88 0.0 0.0 0.00 0.00 0.00 55 1013.7
20260902015034 88 0.0 0.0 0.00 0.00 0.00 55 1013.9
20260902014616 89 0.0 0.0 0.00 0.00 0.00 54 1013.7
20260902014035 89 0.0 0.0 0.00 0.00 0.00 53 1013.7
20260902013535 89 0.0 0.0 0.00 0.00 0.00 53 1013.7
20260902013035 90 166 0.0 1.0 0.00 0.00 0.00 53 1013.6
20260902012535 90 177 0.0 1.0 0.00 0.00 0.00 52 1013.5
20260902012035 90 169 0.0 1.0 0.00 0.00 0.00 52 1013.5
20260902011556 91 160 0.0 1.0 0.00 0.00 0.00 51 1013.5
20260902011035 91 138 0.0 3.0 0.00 0.00 0.00 51 1013.3
20260902010555 91 151 0.0 2.0 0.00 0.00 0.00 50 1013.3
20260902010024 91 0.0 0.0 0.00 0.00 0.00 49 1013.3
20260902005606 92 164 0.0 1.0 0.00 0.00 0.00 48 1013.4
20260902005035 92 175 0.0 1.0 0.00 0.00 0.00 48 1013.5
20260902004535 93 165 0.0 1.0 0.00 0.00 0.00 48 1013.4
20260902004035 93 153 0.0 1.0 0.00 0.00 0.00 47 1013.4
20260902003554 93 175 0.0 1.0 0.00 0.00 0.00 47 1013.4
20260902003118 94 173 0.0 2.0 0.00 0.00 0.00 46 1013.5
20260902002558 94 140 1.0 5.0 0.00 0.00 0.00 45 1013.4
20260902002058 95 155 1.0 1.0 0.00 0.00 0.00 45 1013.6
20260902001536 95 169 1.0 6.0 0.00 0.00 0.00 45 1013.6
20260902001036 95 166 1.0 2.0 0.00 0.00 0.00 45 1013.6
20260902000535 95 163 1.0 2.0 0.00 0.00 0.00 44 1013.7
20260902000035 96 167 1.0 2.0 0.00 0.00 0.00 43 1013.6
20260901235535 96 149 1.0 3.0 0.00 0.00 0.00 42 1013.6
20260901235035 97 152 1.0 2.0 0.00 0.00 0.00 42 1013.5
20260901234535 98 158 1.0 2.0 0.00 0.00 0.00 41 1013.7
20260901234035 98 190 1.0 3.0 0.00 0.00 0.00 40 1013.7
20260901233535 98 159 1.0 3.0 0.00 0.00 0.00 39 1013.7
20260901233035 98 183 1.0 2.0 0.00 0.00 0.00 40 1013.7
20260901232535 99 131 2.0 7.0 0.00 0.00 0.00 40 1013.8
20260901232035 99 196 1.0 5.0 0.00 0.00 0.00 39 1013.8
20260901231535 99 175 1.0 3.0 0.00 0.00 0.00 39 1013.9
20260901231035 100 173 1.0 3.0 0.00 0.00 0.00 38 1013.8
20260901230535 100 239 1.0 3.0 0.00 0.00 0.00 37 1013.8
20260901230035 100 166 1.0 3.0 0.00 0.00 0.00 38 1013.9
20260901225519 100 173 1.0 3.0 0.00 0.00 0.00 39 1013.7
20260901225123 100 134 1.0 1.0 0.00 0.00 0.00 39 1013.9
20260901224536 100 183 2.0 3.0 0.00 0.00 0.00 38 1013.8
20260901224035 100 183 1.0 3.0 0.00 0.00 0.00 39 1013.8
20260901223534 100 140 2.0 6.0 0.00 0.00 0.00 39 1013.9
20260901223031 101 133 1.0 3.0 0.00 0.00 0.00 38 1013.9
20260901222614 101 195 1.0 2.0 0.00 0.00 0.00 37 1013.9
20260901222054 101 184 1.0 2.0 0.00 0.00 0.00 37 1013.9
20260901221536 100 177 1.0 3.0 0.00 0.00 0.00 39 1013.9
20260901221035 100 150 2.0 8.0 0.00 0.00 0.00 39 1013.9
20260901220535 101 155 1.0 3.0 0.00 0.00 0.00 39 1014.0
20260901220035 100 190 1.0 2.0 0.00 0.00 0.00 39 1014.1
20260901215519 100 192 3.0 6.0 0.00 0.00 0.00 40 1014.0
20260901215123 100 172 2.0 6.0 0.00 0.00 0.00 40 1014.1
20260901214543 100 130 2.0 5.0 0.00 0.00 0.00 40 1014.2
20260901214035 99 161 1.0 2.0 0.00 0.00 0.00 40 1014.2
20260901213555 99 168 1.0 1.0 0.00 0.00 0.00 41 1014.2
20260901213035 99 134 1.0 3.0 0.00 0.00 0.00 40 1014.3
20260901212527 100 167 2.0 3.0 0.00 0.00 0.00 41 1014.3
20260901212110 101 184 2.0 3.0 0.00 0.00 0.00 41 1014.3
20260901211631 101 163 2.0 5.0 0.00 0.00 0.00 40 1014.4
20260901211035 101 155 3.0 10.0 0.00 0.00 0.00 40 1014.5
20260901210535 102 144 2.0 5.0 0.00 0.00 0.00 40 1014.5
20260901210055 102 192 1.0 3.0 0.00 0.00 0.00 38 1014.4
20260901205535 100 169 1.0 6.0 0.00 0.00 0.00 41 1014.4
20260901205035 100 149 1.0 3.0 0.00 0.00 0.00 40 1014.5
20260901204536 100 138 4.0 8.0 0.00 0.00 0.00 40 1014.7
20260901204034 101 236 2.0 5.0 0.00 0.00 0.00 39 1014.7
20260901203535 100 185 1.0 2.0 0.00 0.00 0.00 39 1014.8
20260901203035 99 206 1.0 3.0 0.00 0.00 0.00 39 1014.8
20260901202527 99 171 1.0 3.0 0.00 0.00 0.00 41 1015.0
20260901202131 99 169 2.0 5.0 0.00 0.00 0.00 41 1015.1
20260901201551 99 159 2.0 5.0 0.00 0.00 0.00 41 1015.0
20260901201055 100 150 1.0 2.0 0.00 0.00 0.00 41 1015.1
20260901200535 99 154 1.0 6.0 0.00 0.00 0.00 42 1015.2
20260901200035 98 126 2.0 6.0 0.00 0.00 0.00 42 1015.2
20260901195534 97 178 1.0 2.0 0.00 0.00 0.00 42 1015.3
20260901195118 98 191 1.0 2.0 0.00 0.00 0.00 43 1015.2
20260901194639 96 140 2.0 6.0 0.00 0.00 0.00 44 1015.4
20260901194055 96 115 2.0 8.0 0.00 0.00 0.00 45 1015.4
20260901193535 96 166 1.0 2.0 0.00 0.00 0.00 44 1015.5
20260901193035 96 151 2.0 3.0 0.00 0.00 0.00 46 1015.6
20260901192535 97 144 2.0 6.0 0.00 0.00 0.00 45 1015.6
20260901192034 98 175 0.0 1.0 0.00 0.00 0.00 44 1015.6
20260901191536 99 143 2.0 3.0 0.00 0.00 0.00 42 1015.7
20260901191035 100 166 2.0 5.0 0.00 0.00 0.00 42 1015.8
20260901190614 99 173 2.0 5.0 0.00 0.00 0.00 43 1015.9
20260901190036 99 185 1.0 3.0 0.00 0.00 0.00 43 1015.9
20260901185535 97 171 1.0 2.0 0.00 0.00 0.00 44 1016.1
20260901185031 97 162 1.0 2.0 0.00 0.00 0.00 45 1016.3
20260901184615 99 134 2.0 3.0 0.00 0.00 0.00 44 1016.3
20260901184114 99 184 2.0 5.0 0.00 0.00 0.00 43 1016.3
20260901183535 99 168 2.0 2.0 0.00 0.00 0.00 42 1016.3
20260901183035 97 153 1.0 2.0 0.00 0.00 0.00 44 1016.5
20260901182535 97 181 1.0 2.0 0.00 0.00 0.00 45 1016.5
20260901182043 97 179 1.0 3.0 0.00 0.00 0.00 45 1016.7
20260901181606 96 181 1.0 2.0 0.00 0.00 0.00 47 1016.7
20260901181046 94 155 0.0 1.0 0.00 0.00 0.00 49 1016.8
20260901180535 93 151 1.0 3.0 0.00 0.00 0.00 51 1016.9
20260901180036 93 174 1.0 2.0 0.00 0.00 0.00 51 1017.0
20260901175535 94 174 1.0 2.0 0.00 0.00 0.00 50 1016.9
20260901175051 95 156 1.0 2.0 0.00 0.00 0.00 49 1017.0
20260901174614 94 173 1.0 2.0 0.00 0.00 0.00 49 1017.0
20260901174054 94 184 1.0 2.0 0.00 0.00 0.00 50 1017.2
20260901173535 97 171 2.0 5.0 0.00 0.00 0.00 47 1017.2
20260901173055 97 166 1.0 2.0 0.00 0.00 0.00 47 1017.3
20260901172535 97 187 1.0 2.0 0.00 0.00 0.00 48 1017.3
20260901172035 96 182 1.0 2.0 0.00 0.00 0.00 48 1017.5
20260901171520 96 149 1.0 3.0 0.00 0.00 0.00 48 1017.6
20260901171102 96 185 1.0 2.0 0.00 0.00 0.00 49 1017.6
20260901170535 96 179 2.0 3.0 0.00 0.00 0.00 49 1017.7
20260901170035 95 194 1.0 2.0 0.00 0.00 0.00 49 1017.7
20260901165535 95 182 1.0 2.0 0.00 0.00 0.00 50 1017.8
20260901165035 95 195 2.0 3.0 0.00 0.00 0.00 50 1017.9
20260901164528 95 161 1.0 3.0 0.00 0.00 0.00 51 1017.9
20260901164110 94 186 1.0 3.0 0.00 0.00 0.00 52 1018.0
20260901163550 94 200 1.0 3.0 0.00 0.00 0.00 52 1017.9
20260901163035 94 174 1.0 3.0 0.00 0.00 0.00 53 1018.0
20260901162534 94 189 1.0 2.0 0.00 0.00 0.00 53 1018.0
20260901162035 94 177 1.0 2.0 0.00 0.00 0.00 53 1017.9
20260901161520 93 187 1.0 2.0 0.00 0.00 0.00 55 1018.1
20260901161103 92 145 1.0 3.0 0.00 0.00 0.00 55 1017.9
20260901160603 91 172 1.0 2.0 0.00 0.00 0.00 56 1018.0
20260901160035 92 130 1.0 2.0 0.00 0.00 0.00 56 1018.0
20260901155535 91 173 1.0 1.0 0.00 0.00 0.00 56 1018.1
20260901155035 91 190 1.0 2.0 0.00 0.00 0.00 57 1018.1
20260901154528 91 189 1.0 2.0 0.00 0.00 0.00 58 1018.1
20260901154111 90 170 1.0 2.0 0.00 0.00 0.00 59 1018.0
20260901153550 90 168 1.0 2.0 0.00 0.00 0.00 60 1018.1
20260901153035 90 181 1.0 2.0 0.00 0.00 0.00 60 1018.0
20260901152534 89 178 2.0 3.0 0.00 0.00 0.00 60 1018.0
20260901152035 89 189 1.0 2.0 0.00 0.00 0.00 61 1018.0
20260901151556 89 184 1.0 2.0 0.00 0.00 0.00 61 1018.1
20260901151118 89 192 1.0 2.0 0.00 0.00 0.00 61 1018.0
20260901150559 89 171 1.0 1.0 0.00 0.00 0.00 61 1018.1
20260901150035 88 207 1.0 2.0 0.00 0.00 0.00 61 1018.0
20260901145536 88 171 0.0 1.0 0.00 0.00 0.00 61 1018.1
20260901145035 88 174 1.0 1.0 0.00 0.00 0.00 62 1018.1
20260901144536 87 175 0.0 1.0 0.00 0.00 0.00 63 1018.0
20260901144023 87 190 1.0 2.0 0.00 0.00 0.00 63 1018.2
20260901143607 87 182 1.0 2.0 0.00 0.00 0.00 63 1018.0
20260901143036 87 175 0.0 1.0 0.00 0.00 0.00 63 1018.0
20260901142535 87 173 0.0 1.0 0.00 0.00 0.00 63 1018.0
20260901142034 86 170 1.0 1.0 0.00 0.00 0.00 63 1018.0
20260901141556 86 171 1.0 2.0 0.00 0.00 0.00 64 1018.0
20260901141119 86 171 0.0 1.0 0.00 0.00 0.00 64 1018.1
20260901140559 86 175 1.0 2.0 0.00 0.00 0.00 63 1018.0
20260901140039 86 163 0.0 1.0 0.00 0.00 0.00 63 1018.0
20260901135535 86 180 0.0 1.0 0.00 0.00 0.00 63 1018.1
20260901135035 86 176 0.0 1.0 0.00 0.00 0.00 64 1018.1
20260901134536 86 162 0.0 2.0 0.00 0.00 0.00 63 1018.0
20260901134024 86 0.0 0.0 0.00 0.00 0.00 63 1018.0
20260901133607 86 0.0 0.0 0.00 0.00 0.00 63 1017.9
20260901133049 85 0.0 0.0 0.00 0.00 0.00 65 1017.9
20260901132534 84 154 0.0 1.0 0.00 0.00 0.00 66 1017.9
20260901132035 82 153 0.0 1.0 0.00 0.00 0.00 68 1017.7
20260901131536 80 160 0.0 1.0 0.00 0.00 0.00 71 1017.9
20260901131051 79 0.0 0.0 0.00 0.00 0.00 75 1017.6
20260901130615 78 0.0 0.0 0.00 0.00 0.00 75 1017.6
20260901130055 78 166 0.0 1.0 0.00 0.00 0.00 76 1017.5
20260901125535 77 0.0 0.0 0.00 0.00 0.00 77 1017.5
20260901125035 77 0.0 0.0 0.00 0.00 0.00 76 1017.4
20260901124535 77 0.0 0.0 0.00 0.00 0.00 76 1017.4
20260901124023 77 166 0.0 1.0 0.00 0.00 0.00 76 1017.3
20260901123627 77 166 0.0 1.0 0.00 0.00 0.00 76 1017.3
20260901123107 77 166 0.0 1.0 0.00 0.00 0.00 75 1017.3
20260901122535 77 166 0.0 1.0 0.00 0.00 0.00 75 1017.3
20260901122035 76 171 0.0 1.0 0.00 0.00 0.00 75 1017.2
20260901121535 77 172 0.0 1.0 0.00 0.00 0.00 75 1017.0
20260901121051 77 174 0.0 1.0 0.00 0.00 0.00 75 1017.0
20260901120615 76 178 0.0 1.0 0.00 0.00 0.00 75 1016.8
20260901120116 76 178 0.0 1.0 0.00 0.00 0.00 75 1017.0
20260901115535 76 179 0.0 1.0 0.00 0.00 0.00 75 1017.0
20260901115035 76 0.0 0.0 0.00 0.00 0.00 75 1016.9
20260901114535 77 0.0 0.0 0.00 0.00 0.00 74 1016.9
20260901114035 77 0.0 0.0 0.00 0.00 0.00 74 1016.9
20260901113520 77 179 0.0 1.0 0.00 0.00 0.00 74 1016.9
20260901113103 77 179 0.0 1.0 0.00 0.00 0.00 75 1016.8
20260901112603 77 179 0.0 1.0 0.00 0.00 0.00 75 1016.8
20260901112035 77 0.0 0.0 0.00 0.00 0.00 75 1016.9
20260901111535 77 179 0.0 1.0 0.00 0.00 0.00 75 1016.9
20260901111035 77 0.0 0.0 0.00 0.00 0.00 74 1016.8
20260901110527 78 0.0 0.0 0.00 0.00 0.00 73 1016.8
20260901110151 78 0.0 0.0 0.00 0.00 0.00 73 1016.9
20260901105551 78 0.0 0.0 0.00 0.00 0.00 74 1016.8
20260901105035 78 0.0 0.0 0.00 0.00 0.00 73 1016.8
20260901104535 78 0.0 0.0 0.00 0.00 0.00 72 1016.7
20260901104034 79 0.0 0.0 0.00 0.00 0.00 72 1016.8
20260901103520 78 179 0.0 1.0 0.00 0.00 0.00 73 1016.7
20260901103103 78 0.0 0.0 0.00 0.00 0.00 73 1016.8
20260901102603 78 179 0.0 1.0 0.00 0.00 0.00 72 1016.8
20260901102035 79 0.0 0.0 0.00 0.00 0.00 71 1016.8
20260901101555 79 0.0 0.0 0.00 0.00 0.00 71 1016.7
20260901101139 80 179 0.0 1.0 0.00 0.00 0.00 70 1016.8
20260901100619 80 179 1.0 1.0 0.00 0.00 0.00 68 1016.9
20260901100040 80 177 1.0 1.0 0.00 0.00 0.00 67 1016.8
20260901095520 80 177 1.0 1.0 0.00 0.00 0.00 68 1016.7
20260901095103 80 177 1.0 1.0 0.00 0.00 0.00 67 1016.8
20260901094544 80 180 1.0 2.0 0.00 0.00 0.00 66 1016.8
20260901094023 80 180 1.0 2.0 0.00 0.00 0.00 67 1016.8
20260901093607 80 177 1.0 2.0 0.00 0.00 0.00 67 1016.9
20260901093108 81 173 1.0 1.0 0.00 0.00 0.00 66 1016.9
20260901092527 81 172 1.0 2.0 0.00 0.00 0.00 64 1016.9
20260901092151 81 174 1.0 2.0 0.00 0.00 0.00 64 1016.9
20260901091552 81 177 1.0 2.0 0.00 0.00 0.00 63 1016.9
20260901091031 81 177 1.0 2.0 0.00 0.00 0.00 63 1016.9
20260901090616 81 179 1.0 1.0 0.00 0.00 0.00 62 1016.8
20260901090055 80 180 1.0 2.0 0.00 0.00 0.00 62 1016.7
20260901085615 80 177 1.0 1.0 0.00 0.00 0.00 61 1016.7
20260901085119 81 173 1.0 1.0 0.00 0.00 0.00 61 1016.7
20260901084559 81 175 1.0 1.0 0.00 0.00 0.00 61 1016.6
20260901084040 80 178 1.0 2.0 0.00 0.00 0.00 61 1016.6
20260901083540 80 172 1.0 1.0 0.00 0.00 0.00 63 1016.6
20260901083103 79 156 1.0 1.0 0.00 0.00 0.00 62 1016.5
20260901082543 79 156 1.0 1.0 0.00 0.00 0.00 62 1016.5
20260901082044 79 156 0.0 1.0 0.00 0.00 0.00 62 1016.6
20260901081607 79 156 0.0 1.0 0.00 0.00 0.00 63 1016.4
20260901081047 79 0.0 0.0 0.00 0.00 0.00 63 1016.4
20260901080528 79 0.0 0.0 0.00 0.00 0.00 61 1016.3
20260901080111 79 156 0.0 1.0 0.00 0.00 0.00 62 1016.4
20260901075551 78 0.0 0.0 0.00 0.00 0.00 62 1016.3
20260901075112 78 0.0 0.0 0.00 0.00 0.00 64 1016.3
20260901074635 78 0.0 0.0 0.00 0.00 0.00 62 1016.4
20260901074055 79 0.0 0.0 0.00 0.00 0.00 62 1016.3
20260901073535 79 0.0 0.0 0.00 0.00 0.00 61 1016.4
20260901073119 79 0.0 0.0 0.00 0.00 0.00 61 1016.4
20260901072559 80 157 0.0 1.0 0.00 0.00 0.00 60 1016.3
20260901072039 80 162 0.0 1.0 0.00 0.00 0.00 59 1016.4
20260901071521 80 0.0 0.0 0.00 0.00 0.00 60 1016.3
20260901071103 79 0.0 0.0 0.00 0.00 0.00 59 1016.2
20260901070543 79 0.0 0.0 0.00 0.00 0.00 60 1016.2
20260901070024 79 0.0 0.0 0.00 0.00 0.00 61 1016.2
20260901065607 79 0.0 0.0 0.00 0.00 0.00 61 1016.2
20260901065047 79 0.0 0.0 0.00 0.00 0.00 59 1016.2
20260901064528 79 0.0 0.0 0.00 0.00 0.00 60 1016.2
20260901064112 79 160 0.0 1.0 0.00 0.00 0.00 61 1016.1
20260901063551 80 0.0 0.0 0.00 0.00 0.00 60 1016.1
20260901063032 80 0.0 0.0 0.00 0.00 0.00 59 1016.0
20260901062615 80 0.0 0.0 0.00 0.00 0.00 59 1016.0
20260901062055 80 0.0 0.0 0.00 0.00 0.00 60 1015.9
20260901061535 80 0.0 0.0 0.00 0.00 0.00 59 1015.9
20260901061140 81 160 0.0 1.0 0.00 0.00 0.00 56 1015.9
20260901060559 80 161 0.0 1.0 0.00 0.00 0.00 58 1016.0
20260901060100 80 0.0 0.0 0.00 0.00 0.00 58 1016.0
20260901055520 80 162 0.0 1.0 0.00 0.00 0.00 58 1015.9
20260901055103 80 0.0 0.0 0.00 0.00 0.00 59 1015.9
20260901054545 80 162 0.0 1.0 0.00 0.00 0.00 59 1016.0
20260901054024 80 0.0 0.0 0.00 0.00 0.00 58 1015.8
20260901053607 80 0.0 0.0 0.00 0.00 0.00 59 1015.8
20260901053048 80 0.0 0.0 0.00 0.00 0.00 58 1015.7
20260901052548 80 0.0 0.0 0.00 0.00 0.00 57 1015.7
20260901052111 81 0.0 0.0 0.00 0.00 0.00 56 1015.6
20260901051552 81 162 0.0 1.0 0.00 0.00 0.00 57 1015.6
20260901051034 81 162 0.0 1.0 0.00 0.00 0.00 58 1015.4
20260901050534 81 162 0.0 1.0 0.00 0.00 0.00 58 1015.5
20260901050038 80 0.0 0.0 0.00 0.00 0.00 57 1015.5
20260901045534 81 0.0 0.0 0.00 0.00 0.00 56 1015.5
20260901045119 81 0.0 0.0 0.00 0.00 0.00 56 1015.5
20260901044559 81 0.0 0.0 0.00 0.00 0.00 56 1015.5
20260901044033 82 162 0.0 1.0 0.00 0.00 0.00 55 1015.5
20260901043534 81 0.0 0.0 0.00 0.00 0.00 55 1015.5
20260901043034 82 0.0 0.0 0.00 0.00 0.00 54 1015.4
20260901042533 82 0.0 0.0 0.00 0.00 0.00 54 1015.4
20260901042054 82 0.0 0.0 0.00 0.00 0.00 54 1015.4
20260901041535 82 0.0 0.0 0.00 0.00 0.00 53 1015.3
20260901041034 82 0.0 0.0 0.00 0.00 0.00 53 1015.3
20260901040533 83 0.0 0.0 0.00 0.00 0.00 54 1015.3
20260901040034 84 0.0 0.0 0.00 0.00 0.00 53 1015.3
20260901035554 84 0.0 0.0 0.00 0.00 0.00 53 1015.4
20260901035119 84 0.0 0.0 0.00 0.00 0.00 52 1015.4
20260901034640 84 0.0 0.0 0.00 0.00 0.00 52 1015.4